This is the latest recevied weather packets stored in our database for station/object KK7RJD. If no packets are shown the sender has not sent any weather packets the latest 10 day(s).
| Time | Temp. | Humidity | Pressure | Rain* | Wind** | Luminosity | Snow |
|---|---|---|---|---|---|---|---|
| 1777741631 | 17.22° C | 28% | 1018.7 hPa | 0 mm | - | 648 W/m² | - |
| 1777741328 | 16.67° C | 29% | 1018.9 hPa | 0 mm | - | 788 W/m² | - |
| 1777741023 | 16.11° C | 29% | 1018.9 hPa | 0 mm | - | 753 W/m² | - |
| 1777740721 | 16.11° C | 30% | 1018.9 hPa | 0 mm | - | 637 W/m² | - |
| 1777740417 | 16.11° C | 30% | 1019 hPa | 0 mm | - | 700 W/m² | - |
| 1777740115 | 16.11° C | 29% | 1019.1 hPa | 0 mm | - | 690 W/m² | - |
| 1777739810 | 15.56° C | 29% | 1019 hPa | 0 mm | - | 690 W/m² | - |
| 1777739507 | 15.56° C | 31% | 1019 hPa | 0 mm | - | 673 W/m² | - |
| 1777739204 | 15° C | 29% | 1019 hPa | 0 mm | - | 648 W/m² | - |
| 1777738901 | 14.44° C | 31% | 1019 hPa | 0 mm | - | 689 W/m² | - |
| 1777738598 | 14.44° C | 32% | 1019 hPa | 0 mm | - | 599 W/m² | - |
| 1777738295 | 15° C | 33% | 1019 hPa | 0 mm | - | 610 W/m² | - |
| 1777737993 | 14.44° C | 33% | 1019 hPa | 0 mm | - | 566 W/m² | - |
| 1777737691 | 14.44° C | 33% | 1019.1 hPa | 0 mm | - | 415 W/m² | - |
| 1777737389 | 13.89° C | 33% | 1019.1 hPa | 0 mm | - | 431 W/m² | - |
| 1777737086 | 14.44° C | 32% | 1019.1 hPa | 0 mm | - | 458 W/m² | - |
| 1777736782 | 14.44° C | 31% | 1019 hPa | 0 mm | - | 495 W/m² | - |
| 1777736154 | 13.33° C | 33% | 1019.1 hPa | 0 mm | - | 454 W/m² | - |
| 1777735851 | 12.78° C | 34% | 1019 hPa | 0 mm | - | 241 W/m² | - |
| 1777735548 | 13.33° C | 35% | 1019.1 hPa | 0 mm | - | 474 W/m² | - |
| 1777735245 | 13.33° C | 35% | 1019.3 hPa | 0 mm | - | 440 W/m² | - |
| 1777734943 | 13.33° C | 34% | 1019.3 hPa | 0 mm | - | 492 W/m² | - |
| 1777734640 | 12.78° C | 34% | 1019.2 hPa | 0 mm | - | 143 W/m² | - |
| 1777734337 | 12.22° C | 36% | 1019.1 hPa | 0 mm | - | 433 W/m² | - |
| 1777734033 | 11.67° C | 36% | 1019.2 hPa | 0 mm | - | 434 W/m² | - |
* Rain latest hour (hover to see other rain measurements)
** Current wind speed in m/s (hover to see current wind gust speed)